Location: São Paulo
(23.5507°S, 46.6334°W)
Time: 06:46:31
(UTC-03:00)

Explorer 7 - Pass Details

Date: 16 February 2026
Orbit: 430 x 541 km, 50.2° (Epoch: 10 March)

Event Time Altitude Azimuth Distance (km) Brightness Sun altitude
Rises 10:39:42 0° 213° (SSW) 2,489 10.0 63.5°
Reaches altitude 10° 10:42:01 10° 203° (SSW) 1,592 9.1 64.0°
Maximum altitude 10:45:19 35° 136° (SE) 743 8.2 64.7°
Drops below altitude 10° 10:48:31 10° 68° (ENE) 1,540 9.7 65.4°
Sets 10:50:43 0° 59° (ENE) 2,394 10.4 65.8°
